Terminal Aerodrome Forecast
Issued by NWS

Home | Current Version | Previous Version | Text Only | Print | Product List | Glossary On
Versions: 1 2 3 4 5 6 7 8 9 10 11 12 13 14 15 16 17 18 19 20 21 22
000
FTUS41 KGYX 280150 AAA
TAFRKD
TAF AMD
KRKD 280150Z 2802/2824 02008G18KT P6SM OVC035
     FM281200 36018G28KT P6SM BKN050
      AMD LTD TO CLD VIS AND WIND=

USA.gov is the U.S. government's official web portal to all federal, state and local government web resources and services.